TimeCST,TemperatureF,Dew PointF,Humidity,Sea Level PressureIn,VisibilityMPH,Wind Direction,Wind SpeedMPH,Gust SpeedMPH,PrecipitationIn,Events,Conditions,WindDirDegrees,DateUTC
12:04 AM,33.8,32.0,93,30.14,4.0,NNW,3.5,-,0.00,Snow,Light Snow,330,2013-01-17 06:04:00
12:53 AM,34.0,32.0,92,30.15,10.0,Calm,Calm,-,0.00,,Overcast,0,2013-01-17 06:53:00
1:53 AM,34.0,30.0,85,30.16,10.0,NNW,4.6,-,0.00,,Overcast,340,2013-01-17 07:53:00
2:53 AM,34.0,28.9,82,30.17,10.0,NW,3.5,-,N/A,,Overcast,310,2013-01-17 08:53:00
3:53 AM,34.0,28.9,82,30.19,8.0,North,4.6,-,0.01,Snow,Light Snow,350,2013-01-17 09:53:00
4:29 AM,33.8,28.4,81,30.19,2.5,NNE,9.2,-,0.00,Snow,Light Snow,20,2013-01-17 10:29:00
4:39 AM,33.8,30.2,87,30.20,1.2,NNE,9.2,-,0.00,Snow,Light Snow,20,2013-01-17 10:39:00
4:53 AM,32.0,30.9,96,30.20,1.0,North,6.9,-,0.00,Snow,Light Snow,10,2013-01-17 10:53:00
5:40 AM,33.8,32.0,93,30.19,2.0,North,12.7,-,0.01,Snow,Light Snow,350,2013-01-17 11:40:00
5:53 AM,33.1,32.0,96,30.20,2.5,NNW,11.5,-,0.02,Snow,Light Snow,330,2013-01-17 11:53:00
6:28 AM,33.8,32.0,93,30.21,1.5,NNW,10.4,-,0.02,Snow,Light Snow,340,2013-01-17 12:28:00
6:40 AM,33.8,32.0,93,30.21,2.5,North,9.2,-,0.03,Snow,Light Snow,350,2013-01-17 12:40:00
6:49 AM,33.8,32.0,93,30.21,3.0,North,10.4,-,0.04,Snow,Light Snow,350,2013-01-17 12:49:00
6:53 AM,33.1,32.0,96,30.22,2.5,North,9.2,-,0.04,Snow,Light Snow,350,2013-01-17 12:53:00
7:16 AM,33.8,32.0,93,30.21,5.0,North,6.9,-,0.02,Snow,Light Snow,350,2013-01-17 13:16:00
7:25 AM,33.8,32.0,93,30.22,8.0,North,6.9,-,0.03,Rain,Light Rain,10,2013-01-17 13:25:00
7:39 AM,33.8,33.8,100,30.22,10.0,NE,4.6,-,0.03,Rain,Light Rain,40,2013-01-17 13:39:00
7:53 AM,34.0,32.0,92,30.23,10.0,Calm,Calm,-,0.03,,Overcast,0,2013-01-17 13:53:00
8:53 AM,34.0,33.1,96,30.25,9.0,Calm,Calm,-,N/A,,Overcast,0,2013-01-17 14:53:00
9:53 AM,37.0,34.0,89,30.26,10.0,West,3.5,-,N/A,,Overcast,270,2013-01-17 15:53:00
10:53 AM,39.2,32.0,75,30.27,10.0,NW,5.8,-,N/A,,Overcast,310,2013-01-17 16:53:00
11:53 AM,41.0,30.0,65,30.28,10.0,NW,10.4,-,N/A,,Overcast,320,2013-01-17 17:53:00
12:53 PM,42.1,30.9,65,30.27,10.0,WNW,5.8,-,N/A,,Overcast,300,2013-01-17 18:53:00
1:53 PM,48.0,34.0,58,30.27,10.0,NW,8.1,-,N/A,,Clear,320,2013-01-17 19:53:00
2:53 PM,48.9,35.1,59,30.29,10.0,NNW,11.5,-,N/A,,Clear,340,2013-01-17 20:53:00
3:53 PM,50.0,35.1,57,30.31,10.0,NNW,10.4,17.3,N/A,,Clear,330,2013-01-17 21:53:00
4:53 PM,48.0,36.0,63,30.34,10.0,NNW,6.9,-,N/A,,Clear,330,2013-01-17 22:53:00
5:53 PM,46.0,36.0,68,30.38,10.0,NNW,8.1,-,N/A,,Clear,340,2013-01-17 23:53:00
6:53 PM,43.0,35.1,74,30.40,10.0,North,5.8,-,N/A,,Clear,350,2013-01-18 00:53:00
7:53 PM,39.9,34.0,79,30.42,10.0,North,3.5,-,N/A,,Clear,360,2013-01-18 01:53:00
8:53 PM,35.1,33.1,92,30.45,10.0,Calm,Calm,-,N/A,,Clear,0,2013-01-18 02:53:00
9:53 PM,33.1,30.9,92,30.47,10.0,Calm,Calm,-,N/A,,Clear,0,2013-01-18 03:53:00
10:53 PM,35.1,33.1,92,30.48,10.0,NNE,4.6,-,N/A,,Clear,20,2013-01-18 04:53:00
11:53 PM,34.0,30.9,89,30.48,10.0,NE,3.5,-,N/A,,Clear,40,2013-01-18 05:53:00